West Chatham, MA

1:10 AM EST on February 28, 2017 (GMT -0500)
Chatham Municipal

Weather History for KCQX - November, 2012

Change the Weather History Date:

Thursday, November 15, 2012

  Actual Average Record
Temperature  
Mean Temperature 44 °F -  
Max Temperature 46 °F 48 °F 63 °F (1993)
Min Temperature 43 °F 36 °F 28 °F (1996)
Degree Days  
Heating Degree Days 20    
Moisture  
Dew Point 37 °F    
Average Humidity 72    
Maximum Humidity 76    
Minimum Humidity 65    
Precipitation  
Precipitation 0.00 in - - ()
Sea Level Pressure  
Sea Level Pressure 30.33 in    
Wind  
Wind Speed 9 mph (NNE)    
Max Wind Speed 13 mph    
Max Gust Speed 25 mph    
Visibility 10 miles    
Events      
Averages and records for this station are not official NWS values.
T = Trace of Precipitation, MM = Missing Value Source: NWS Daily Summary

Daily Weather History Graph

Daily Weather History Graph

Search for Another Location

Airport or City:

Trip Planner

Search our weather history database for the weather conditions in past years. The results will help you decide how hot, cold, wet, or windy it might be!

Date:

Astronomy

Nov. 15, 2012 Rise Set
Actual Time 6:29 AM EST 4:19 PM EST
Civil Twilight 5:59 AM EST 4:49 PM EST
Nautical Twilight 5:26 AM EST 5:22 PM EST
Astronomical Twilight 4:53 AM EST 5:55 PM EST
Moon 8:22 AM EST (11/15) 6:06 PM EST (11/15)
Length of Visible Light 10h 49m
Length of Day
9h 49m
Waxing Crescent, 5% of the Moon is Illuminated
Nov 15
Waxing Crescent
Nov 20
First Quarter
Nov 28
Full
Dec 6
Last Quarter
Dec 13
New

Hourly Weather History & Observations

Time (EST) Temp. Windchill Dew Point Humidity Pressure Visibility Wind Dir Wind Speed Gust Speed Precip Events Conditions
12:52 AM 45.0 °F 38.9 °F 35.1 °F 68% 30.37 in 10.0 mi NNE 12.7 mph 25.3 mph N/A   Overcast
1:52 AM 45.0 °F 40.6 °F 34.0 °F 65% 30.38 in 10.0 mi NNE 8.1 mph 21.9 mph N/A   Overcast
2:52 AM 45.0 °F 39.3 °F 35.1 °F 68% 30.37 in 10.0 mi NNE 11.5 mph 20.7 mph N/A   Overcast
3:52 AM 45.0 °F 40.1 °F 36.0 °F 71% 30.37 in 10.0 mi NNE 9.2 mph 19.6 mph N/A   Overcast
4:52 AM 45.0 °F 40.1 °F 36.0 °F 71% 30.36 in 10.0 mi NNE 9.2 mph 17.3 mph N/A   Overcast
5:52 AM 45.0 °F 40.6 °F 36.0 °F 71% 30.37 in 10.0 mi NNE 8.1 mph 16.1 mph N/A   Overcast
6:52 AM 45.0 °F 38.9 °F 35.1 °F 68% 30.37 in 10.0 mi NNE 12.7 mph 25.3 mph N/A   Overcast
7:52 AM 45.0 °F 41.8 °F 36.0 °F 71% 30.38 in 10.0 mi Variable 5.8 mph - N/A   Overcast
8:52 AM 46.0 °F 41.0 °F 37.0 °F 71% 30.37 in 10.0 mi NNE 10.4 mph 17.3 mph N/A   Overcast
9:52 AM 46.0 °F 41.4 °F 37.0 °F 71% 30.38 in 10.0 mi NNE 9.2 mph - N/A   Overcast
10:52 AM 46.9 °F - 37.0 °F 68% 30.35 in 10.0 mi NNE 8.1 mph 18.4 mph N/A   Overcast
11:52 AM 46.9 °F - 37.9 °F 71% 30.33 in 10.0 mi Variable 6.9 mph - N/A   Overcast
12:52 PM 46.9 °F - 37.9 °F 71% 30.31 in 10.0 mi NNE 9.2 mph 17.3 mph N/A   Overcast
1:52 PM 46.0 °F 41.4 °F 37.9 °F 73% 30.30 in 10.0 mi NNE 9.2 mph 17.3 mph N/A   Overcast
2:52 PM 46.0 °F 41.9 °F 37.9 °F 73% 30.30 in 10.0 mi NNE 8.1 mph 17.3 mph N/A   Overcast
3:52 PM 46.0 °F 43.1 °F 37.9 °F 73% 30.30 in 10.0 mi Variable 5.8 mph - N/A   Overcast
4:52 PM 46.0 °F 43.9 °F 37.9 °F 73% 30.30 in 10.0 mi Variable 4.6 mph - N/A   Overcast
5:52 PM 46.0 °F 43.1 °F 37.9 °F 73% 30.29 in 10.0 mi North 5.8 mph - N/A   Overcast
6:52 PM 46.0 °F 42.5 °F 37.9 °F 73% 30.30 in 10.0 mi North 6.9 mph - N/A   Overcast
7:52 PM 45.0 °F 42.6 °F 37.9 °F 76% 30.30 in 10.0 mi Variable 4.6 mph - N/A   Overcast
8:52 PM 45.0 °F 43.5 °F 37.9 °F 76% 30.30 in 10.0 mi Variable 3.5 mph - N/A   Overcast
9:52 PM 44.1 °F 39.5 °F 37.0 °F 76% 30.30 in 10.0 mi North 8.1 mph - N/A   Overcast
10:52 PM 43.0 °F 39.5 °F 36.0 °F 76% 30.29 in 10.0 mi Variable 5.8 mph - N/A   Overcast
11:52 PM 43.0 °F 40.3 °F 35.1 °F 74% 30.28 in 10.0 mi Variable 4.6 mph - N/A   Overcast